Погода в Шатках

Россия / Нижегородская область     55°11′16″N   44°07′40″E
темп.,
°C
ветер,
м/с
пор.,
м/с
влажн.,
%
обл.,
%
осадки,
мм/ч
давл.,
гПа
погр.,
м
19 апреля, пн
пн1900:00+5всв5138326 0.0 1023498
03:00+4всв51284100 0.0 1024456
06:00+3всв51268100 0.0 1024472
09:00+6в7116087 0.0 1024689
12:00+8в81048100 0.0 10251210
15:00+8в810387 0.0 10241445
18:00+7в6104928 0.0 10251425
21:00+4в6135657 0.0 1026770
20 апреля, вт
вт2000:00+3в5135546 0.0 1026557
03:00+2в5136138 0.0 1026495
06:00+2в6146526 0.0 1026644
09:00+5вюв71360100 0.0 1026879
12:00+9вюв7124699 0.0 10241266
15:00+10вюв8124497 0.0 10231492
18:00+9вюв71349100 0.0 10211293
21:00+7вюв81547100 0.0 10201127
21 апреля, ср
ср2100:00+6вюв91850100 0.0 10161045
03:00+3вюв92085100 5.3 1014929
06:00+4юв101978100 0.4 1010985
09:00+5юв101986100 0.9 10091049
12:00+6ююв91790100 0.3 10091224
15:00+8ю61579100 0.4 10121350
18:00+9ююз4108024 0.3 1013984
21:00+7ююз398497 0.3 1016384
22 апреля, чт
чт2200:00+6ю279196 0.0 1016195
03:00+4ююз22945 0.1 101724
06:00+5ю269289 0.0 1018174
09:00+7ю3690100 0.3 1019532
12:00+12юз585999 0.3 10191674
15:00+14юз584455 0.4 10192138
18:00+12юз385960 0.0 1020370
21:00+10ю3770100 0.0 1021168
23 апреля, пт
пт2300:00+9ю3972100 0.0 1021205
03:00+8ююз397191 0.0 1021209
06:00+7ю378089 0.0 1022159
09:00+13ю475640 0.0 1022622
12:00+16ю454482 0.0 10212077
15:00+15ю3551100 0.0 1020892
18:00+14юв375890 0.0 1020249
21:00+9ююв237176 0.0 101936